TimeEDT,TemperatureF,Dew PointF,Humidity,Sea Level PressureIn,VisibilityMPH,Wind Direction,Wind SpeedMPH,Gust SpeedMPH,PrecipitationIn,Events,Conditions,WindDirDegrees,DateUTC
12:56 AM,62.1,54.0,75,29.62,10.0,North,11.5,20.7,0.00,,Overcast,350,2013-06-14 04:56:00
1:56 AM,62.1,54.0,75,29.65,10.0,North,12.7,-,N/A,,Overcast,350,2013-06-14 05:56:00
2:07 AM,60.8,55.4,82,29.67,2.0,NNE,13.8,19.6,0.01,Rain,Rain,30,2013-06-14 06:07:00
2:25 AM,57.2,55.4,94,29.68,3.0,North,11.5,19.6,0.07,Rain,Light Rain,10,2013-06-14 06:25:00
2:56 AM,57.9,55.0,90,29.68,3.0,NNW,5.8,-,0.07,Rain,Light Rain,340,2013-06-14 06:56:00
3:56 AM,57.9,55.0,90,29.69,10.0,NW,5.8,-,0.00,,Overcast,320,2013-06-14 07:56:00
4:56 AM,59.0,55.0,87,29.71,10.0,NNW,9.2,-,0.00,,Overcast,330,2013-06-14 08:56:00
5:56 AM,60.1,54.0,80,29.73,9.0,NNW,10.4,-,0.00,,Overcast,330,2013-06-14 09:56:00
6:56 AM,60.1,53.1,78,29.77,10.0,North,12.7,-,0.01,,Overcast,350,2013-06-14 10:56:00
7:56 AM,60.1,52.0,75,29.80,10.0,North,8.1,-,N/A,,Overcast,350,2013-06-14 11:56:00
8:56 AM,61.0,52.0,72,29.84,10.0,NNW,5.8,-,N/A,,Overcast,340,2013-06-14 12:56:00
9:56 AM,64.0,52.0,65,29.86,10.0,North,6.9,-,N/A,,Overcast,350,2013-06-14 13:56:00
10:56 AM,64.9,51.1,61,29.88,10.0,North,6.9,-,N/A,,Overcast,350,2013-06-14 14:56:00
11:56 AM,68.0,55.0,63,29.87,10.0,West,6.9,-,N/A,,Mostly Cloudy,280,2013-06-14 15:56:00
12:56 PM,72.0,54.0,53,29.86,10.0,NNW,15.0,-,N/A,,Scattered Clouds,330,2013-06-14 16:56:00
1:56 PM,73.9,54.0,50,29.86,10.0,NNW,15.0,20.7,N/A,,Scattered Clouds,330,2013-06-14 17:56:00
2:56 PM,77.0,53.1,43,29.85,10.0,NW,17.3,21.9,N/A,,Scattered Clouds,310,2013-06-14 18:56:00
3:56 PM,75.9,50.0,40,29.84,10.0,NNW,15.0,-,N/A,,Mostly Cloudy,340,2013-06-14 19:56:00
4:56 PM,78.1,51.1,39,29.84,10.0,NW,15.0,-,N/A,,Scattered Clouds,320,2013-06-14 20:56:00
5:56 PM,75.0,53.1,46,29.85,10.0,NW,10.4,18.4,N/A,,Mostly Cloudy,320,2013-06-14 21:56:00
6:56 PM,75.0,52.0,44,29.86,10.0,NW,10.4,-,N/A,,Scattered Clouds,320,2013-06-14 22:56:00
7:56 PM,73.0,53.1,49,29.88,10.0,NNW,8.1,-,N/A,,Scattered Clouds,330,2013-06-14 23:56:00
8:56 PM,68.0,54.0,61,29.91,10.0,NW,6.9,-,N/A,,Partly Cloudy,310,2013-06-15 00:56:00
9:56 PM,66.0,54.0,65,29.93,10.0,NNW,3.5,-,N/A,,Partly Cloudy,330,2013-06-15 01:56:00
10:56 PM,66.9,55.9,68,29.95,10.0,Calm,Calm,-,N/A,,Partly Cloudy,0,2013-06-15 02:56:00
11:56 PM,64.9,55.9,73,29.96,10.0,NNW,3.5,-,N/A,,Partly Cloudy,340,2013-06-15 03:56:00